Year,Month,Day,Hour,Minute,Value (Times are PST for temperature in C)
2016,06,21,00,00,16.60
2016,06,21,00,01,16.60
2016,06,21,00,02,16.60
2016,06,21,00,03,16.50
2016,06,21,00,04,16.50
2016,06,21,00,05,16.50
2016,06,21,00,06,16.50
2016,06,21,00,07,16.40
2016,06,21,00,08,16.40
2016,06,21,00,09,16.40
2016,06,21,00,10,16.40
2016,06,21,00,11,16.30
2016,06,21,00,12,16.30
2016,06,21,00,13,16.30
2016,06,21,00,14,16.30
2016,06,21,00,15,16.30
2016,06,21,00,16,16.30
2016,06,21,00,17,16.20
2016,06,21,00,18,16.20
2016,06,21,00,19,16.20
2016,06,21,00,20,16.20
2016,06,21,00,21,16.20
2016,06,21,00,22,16.20
2016,06,21,00,23,16.10
2016,06,21,00,24,16.10
2016,06,21,00,25,16.10
2016,06,21,00,26,16.10
2016,06,21,00,27,16.10
2016,06,21,00,28,16.00
2016,06,21,00,29,16.00
2016,06,21,00,30,16.00
2016,06,21,00,31,15.90
2016,06,21,00,32,15.90
2016,06,21,00,33,15.90
2016,06,21,00,34,15.90
2016,06,21,00,35,15.80
2016,06,21,00,36,15.80
2016,06,21,00,37,15.80
2016,06,21,00,38,15.80
2016,06,21,00,39,15.80
2016,06,21,00,40,15.70
2016,06,21,00,41,15.70
2016,06,21,00,42,15.70
2016,06,21,00,43,15.60
2016,06,21,00,44,15.60
2016,06,21,00,45,15.60
2016,06,21,00,46,15.60
2016,06,21,00,47,15.50
2016,06,21,00,48,15.50
2016,06,21,00,49,15.50
2016,06,21,00,50,15.40
2016,06,21,00,51,15.40
2016,06,21,00,52,15.40
2016,06,21,00,53,15.30
2016,06,21,00,54,15.30
2016,06,21,00,55,15.30
2016,06,21,00,56,15.30
2016,06,21,00,57,15.30
2016,06,21,00,58,15.20
2016,06,21,00,59,15.20
2016,06,21,01,00,15.20
2016,06,21,01,01,15.20
2016,06,21,01,02,15.20
2016,06,21,01,03,15.10
2016,06,21,01,04,15.10
2016,06,21,01,05,15.10
2016,06,21,01,06,15.10
2016,06,21,01,07,15.10
2016,06,21,01,08,15.00
2016,06,21,01,09,15.00
2016,06,21,01,10,15.00
2016,06,21,01,11,14.90
2016,06,21,01,12,14.90
2016,06,21,01,13,14.90
2016,06,21,01,14,14.90
2016,06,21,01,15,14.80
2016,06,21,01,16,14.80
2016,06,21,01,17,14.80
2016,06,21,01,18,14.80
2016,06,21,01,19,14.70
2016,06,21,01,20,14.70
2016,06,21,01,21,14.70
2016,06,21,01,22,14.70
2016,06,21,01,23,14.70
2016,06,21,01,24,14.60
2016,06,21,01,25,14.60
2016,06,21,01,26,14.60
2016,06,21,01,27,14.60
2016,06,21,01,28,14.50
2016,06,21,01,29,14.50
2016,06,21,01,30,14.50
2016,06,21,01,31,14.50
2016,06,21,01,32,14.40
2016,06,21,01,33,14.40
2016,06,21,01,34,14.40
2016,06,21,01,35,14.40
2016,06,21,01,36,14.40
2016,06,21,01,37,14.30
2016,06,21,01,38,14.30
2016,06,21,01,39,14.30
2016,06,21,01,40,14.30
2016,06,21,01,41,14.30
2016,06,21,01,42,14.30
2016,06,21,01,43,14.30
2016,06,21,01,44,14.30
2016,06,21,01,45,14.30
2016,06,21,01,46,14.30
2016,06,21,01,47,14.30
2016,06,21,01,48,14.30
2016,06,21,01,49,14.30
2016,06,21,01,50,14.30
2016,06,21,01,51,14.20
2016,06,21,01,52,14.20
2016,06,21,01,53,14.20
2016,06,21,01,54,14.20
2016,06,21,01,55,14.20
2016,06,21,01,56,14.10
2016,06,21,01,57,14.10
2016,06,21,01,58,14.10
2016,06,21,01,59,14.10
2016,06,21,02,00,14.10
2016,06,21,02,01,14.10
2016,06,21,02,02,14.10
2016,06,21,02,03,14.10
2016,06,21,02,04,14.10
2016,06,21,02,05,14.10
2016,06,21,02,06,14.10
2016,06,21,02,07,14.10
2016,06,21,02,08,14.10
2016,06,21,02,09,14.00
2016,06,21,02,10,14.00
2016,06,21,02,11,14.00
2016,06,21,02,12,14.00
2016,06,21,02,13,14.00
2016,06,21,02,14,14.00
2016,06,21,02,15,14.00
2016,06,21,02,16,14.00
2016,06,21,02,17,14.00
2016,06,21,02,18,13.90
2016,06,21,02,19,13.90
2016,06,21,02,20,13.90
2016,06,21,02,21,13.90
2016,06,21,02,22,13.90
2016,06,21,02,23,13.90
2016,06,21,02,24,13.90
2016,06,21,02,25,13.90
2016,06,21,02,26,13.90
2016,06,21,02,27,13.90
2016,06,21,02,28,13.90
2016,06,21,02,29,13.90
2016,06,21,02,30,13.90
2016,06,21,02,31,13.90
2016,06,21,02,32,13.90
2016,06,21,02,33,13.90
2016,06,21,02,34,13.90
2016,06,21,02,35,13.90
2016,06,21,02,36,13.90
2016,06,21,02,37,13.90
2016,06,21,02,38,13.90
2016,06,21,02,39,13.90
2016,06,21,02,40,13.90
2016,06,21,02,41,13.90
2016,06,21,02,42,13.80
2016,06,21,02,43,13.80
2016,06,21,02,44,13.80
2016,06,21,02,45,13.80
2016,06,21,02,46,13.80
2016,06,21,02,47,13.80
2016,06,21,02,48,13.80
2016,06,21,02,49,13.80
2016,06,21,02,50,13.80
2016,06,21,02,51,13.80
2016,06,21,02,52,13.70
2016,06,21,02,53,13.70
2016,06,21,02,54,13.70
2016,06,21,02,55,13.70
2016,06,21,02,56,13.70
2016,06,21,02,57,13.70
2016,06,21,02,58,13.70
2016,06,21,02,59,13.60
2016,06,21,03,00,13.60
2016,06,21,03,01,13.60
2016,06,21,03,02,13.60
2016,06,21,03,03,13.60
2016,06,21,03,04,13.60
2016,06,21,03,05,13.50
2016,06,21,03,06,13.50
2016,06,21,03,07,13.50
2016,06,21,03,08,13.40
2016,06,21,03,09,13.40
2016,06,21,03,10,13.40
2016,06,21,03,11,13.40
2016,06,21,03,12,13.30
2016,06,21,03,13,13.30
2016,06,21,03,14,13.30
2016,06,21,03,15,13.30
2016,06,21,03,16,13.30
2016,06,21,03,17,13.30
2016,06,21,03,18,13.30
2016,06,21,03,19,13.20
2016,06,21,03,20,13.20
2016,06,21,03,21,13.20
2016,06,21,03,22,13.20
2016,06,21,03,23,13.10
2016,06,21,03,24,13.10
2016,06,21,03,25,13.10
2016,06,21,03,26,13.10
2016,06,21,03,27,13.00
2016,06,21,03,28,13.00
2016,06,21,03,29,13.00
2016,06,21,03,30,13.00
2016,06,21,03,31,12.90
2016,06,21,03,32,12.90
2016,06,21,03,33,12.90
2016,06,21,03,34,12.90
2016,06,21,03,35,12.90
2016,06,21,03,36,12.90
2016,06,21,03,37,12.90
2016,06,21,03,38,12.90
2016,06,21,03,39,12.80
2016,06,21,03,40,12.80
2016,06,21,03,41,12.80
2016,06,21,03,42,12.80
2016,06,21,03,43,12.70
2016,06,21,03,44,12.70
2016,06,21,03,45,12.70
2016,06,21,03,46,12.60
2016,06,21,03,47,12.60
2016,06,21,03,48,12.60
2016,06,21,03,49,12.50
2016,06,21,03,50,12.50
2016,06,21,03,51,12.50
2016,06,21,03,52,12.40
2016,06,21,03,53,12.40
2016,06,21,03,54,12.40
2016,06,21,03,55,12.40
2016,06,21,03,56,12.40
2016,06,21,03,57,12.40
2016,06,21,03,58,12.40
2016,06,21,03,59,12.40
2016,06,21,04,00,12.40
2016,06,21,04,01,12.40
2016,06,21,04,02,12.40
2016,06,21,04,03,12.40
2016,06,21,04,04,12.40
2016,06,21,04,05,12.40
2016,06,21,04,06,12.40
2016,06,21,04,07,12.40
2016,06,21,04,08,12.40
2016,06,21,04,09,12.40
2016,06,21,04,10,12.40
2016,06,21,04,11,12.50
2016,06,21,04,12,12.50
2016,06,21,04,13,12.50
2016,06,21,04,14,12.50
2016,06,21,04,15,12.60
2016,06,21,04,16,12.60
2016,06,21,04,17,12.60
2016,06,21,04,18,12.60
2016,06,21,04,19,12.60
2016,06,21,04,20,12.60
2016,06,21,04,21,12.60
2016,06,21,04,22,12.50
2016,06,21,04,23,12.50
2016,06,21,04,24,12.50
2016,06,21,04,25,12.40
2016,06,21,04,26,12.40
2016,06,21,04,27,12.40
2016,06,21,04,28,12.40
2016,06,21,04,29,12.40
2016,06,21,04,30,12.40
2016,06,21,04,31,12.40
2016,06,21,04,32,12.40
2016,06,21,04,33,12.40
2016,06,21,04,34,12.50
2016,06,21,04,35,12.50
2016,06,21,04,36,12.50
2016,06,21,04,37,12.50
2016,06,21,04,38,12.60
2016,06,21,04,39,12.60
2016,06,21,04,40,12.60
2016,06,21,04,41,12.60
2016,06,21,04,42,12.60
2016,06,21,04,43,12.60
2016,06,21,04,44,12.60
2016,06,21,04,45,12.60
2016,06,21,04,46,12.50
2016,06,21,04,47,12.50
2016,06,21,04,48,12.50
2016,06,21,04,49,12.50
2016,06,21,04,50,12.50
2016,06,21,04,51,12.50
2016,06,21,04,52,12.50
2016,06,21,04,53,12.50
2016,06,21,04,54,12.50
2016,06,21,04,55,12.50
2016,06,21,04,56,12.50
2016,06,21,04,57,12.50
2016,06,21,04,58,12.50
2016,06,21,04,59,12.50
2016,06,21,05,00,12.50
2016,06,21,05,01,12.50
2016,06,21,05,02,12.50
2016,06,21,05,03,12.50
2016,06,21,05,04,12.60
2016,06,21,05,05,12.60
2016,06,21,05,06,12.60
2016,06,21,05,07,12.60
2016,06,21,05,08,12.60
2016,06,21,05,09,12.60
2016,06,21,05,10,12.60
2016,06,21,05,11,12.60
2016,06,21,05,12,12.60
2016,06,21,05,13,12.60
2016,06,21,05,14,12.60
2016,06,21,05,15,12.60
2016,06,21,05,16,12.60
2016,06,21,05,17,12.60
2016,06,21,05,18,12.50
2016,06,21,05,19,12.50
2016,06,21,05,20,12.50
2016,06,21,05,21,12.50
2016,06,21,05,22,12.50
2016,06,21,05,23,12.50
2016,06,21,05,24,12.50
2016,06,21,05,25,12.50
2016,06,21,05,26,12.40
2016,06,21,05,27,12.40
2016,06,21,05,28,12.40
2016,06,21,05,29,12.40
2016,06,21,05,30,12.40
2016,06,21,05,31,12.40
2016,06,21,05,32,12.40
2016,06,21,05,33,12.40
2016,06,21,05,34,12.40
2016,06,21,05,35,12.30
2016,06,21,05,36,12.30
2016,06,21,05,37,12.30
2016,06,21,05,38,12.30
2016,06,21,05,39,12.30
2016,06,21,05,40,12.30
2016,06,21,05,41,12.40
2016,06,21,05,42,12.40
2016,06,21,05,43,12.40
2016,06,21,05,44,12.40
2016,06,21,05,45,12.40
2016,06,21,05,46,12.40
2016,06,21,05,47,12.40
2016,06,21,05,48,12.40
2016,06,21,05,49,12.40
2016,06,21,05,50,12.50
2016,06,21,05,51,12.50
2016,06,21,05,52,12.50
2016,06,21,05,53,12.50
2016,06,21,05,54,12.50
2016,06,21,05,55,12.60
2016,06,21,05,56,12.60
2016,06,21,05,57,12.60
2016,06,21,05,58,12.60
2016,06,21,05,59,12.60
2016,06,21,06,00,12.60
2016,06,21,06,01,12.60
2016,06,21,06,02,12.60
2016,06,21,06,03,12.70
2016,06,21,06,04,12.70
2016,06,21,06,05,12.70
2016,06,21,06,06,12.70
2016,06,21,06,07,12.70
2016,06,21,06,08,12.70
2016,06,21,06,09,12.70
2016,06,21,06,10,12.70
2016,06,21,06,11,12.70
2016,06,21,06,12,12.70
2016,06,21,06,13,12.80
2016,06,21,06,14,12.80
2016,06,21,06,15,12.80
2016,06,21,06,16,12.80
2016,06,21,06,17,12.80
2016,06,21,06,18,12.90
2016,06,21,06,19,12.90
2016,06,21,06,20,12.90
2016,06,21,06,21,12.90
2016,06,21,06,22,12.90
2016,06,21,06,23,13.00
2016,06,21,06,24,13.00
2016,06,21,06,25,13.00
2016,06,21,06,26,13.00
2016,06,21,06,27,13.00
2016,06,21,06,28,13.10
2016,06,21,06,29,13.10
2016,06,21,06,30,13.10
2016,06,21,06,31,13.10
2016,06,21,06,32,13.10
2016,06,21,06,33,13.10
2016,06,21,06,34,13.10
2016,06,21,06,35,13.20
2016,06,21,06,36,13.20
2016,06,21,06,37,13.20
2016,06,21,06,38,13.30
2016,06,21,06,39,13.30
2016,06,21,06,40,13.30
2016,06,21,06,41,13.30
2016,06,21,06,42,13.30
2016,06,21,06,43,13.30
2016,06,21,06,44,13.30
2016,06,21,06,45,13.30
2016,06,21,06,46,13.40
2016,06,21,06,47,13.40
2016,06,21,06,48,13.40
2016,06,21,06,49,13.40
2016,06,21,06,50,13.50
2016,06,21,06,51,13.50
2016,06,21,06,52,13.50
2016,06,21,06,53,13.50
2016,06,21,06,54,13.50
2016,06,21,06,55,13.60
2016,06,21,06,56,13.60
2016,06,21,06,57,13.60
2016,06,21,06,58,13.60
2016,06,21,06,59,13.60
2016,06,21,07,00,13.60
2016,06,21,07,01,13.70
2016,06,21,07,02,13.70
2016,06,21,07,03,13.70
2016,06,21,07,04,13.70
2016,06,21,07,05,13.70
2016,06,21,07,06,13.70
2016,06,21,07,07,13.80
2016,06,21,07,08,13.80
2016,06,21,07,09,13.90
2016,06,21,07,10,13.90
2016,06,21,07,11,13.90
2016,06,21,07,12,13.90
2016,06,21,07,13,13.90
2016,06,21,07,14,13.90
2016,06,21,07,15,13.90
2016,06,21,07,16,13.90
2016,06,21,07,17,13.90
2016,06,21,07,18,13.90
2016,06,21,07,19,14.00
2016,06,21,07,20,14.00
2016,06,21,07,21,14.10
2016,06,21,07,22,14.10
2016,06,21,07,23,14.10
2016,06,21,07,24,14.20
2016,06,21,07,25,14.20
2016,06,21,07,26,14.20
2016,06,21,07,27,14.20
2016,06,21,07,28,14.30
2016,06,21,07,29,14.30
2016,06,21,07,30,14.30
2016,06,21,07,31,14.30
2016,06,21,07,32,14.30
2016,06,21,07,33,14.30
2016,06,21,07,34,14.30
2016,06,21,07,35,14.30
2016,06,21,07,36,14.30
2016,06,21,07,37,14.30
2016,06,21,07,38,14.40
2016,06,21,07,39,14.40
2016,06,21,07,40,14.40
2016,06,21,07,41,14.40
2016,06,21,07,42,14.40
2016,06,21,07,43,14.40
2016,06,21,07,44,14.40
2016,06,21,07,45,14.50
2016,06,21,07,46,14.50
2016,06,21,07,47,14.60
2016,06,21,07,48,14.60
2016,06,21,07,49,14.60
2016,06,21,07,50,14.70
2016,06,21,07,51,14.60
2016,06,21,07,52,14.70
2016,06,21,07,53,14.70
2016,06,21,07,54,14.70
2016,06,21,07,55,14.70
2016,06,21,07,56,14.70
2016,06,21,07,57,14.70
2016,06,21,07,58,14.80
2016,06,21,07,59,14.80
2016,06,21,08,00,14.80
2016,06,21,08,01,14.80
2016,06,21,08,02,14.80
2016,06,21,08,03,14.90
2016,06,21,08,04,15.00
2016,06,21,08,05,15.00
2016,06,21,08,06,15.10
2016,06,21,08,07,15.20
2016,06,21,08,08,15.30
2016,06,21,08,09,15.30
2016,06,21,08,10,15.30
2016,06,21,08,11,15.30
2016,06,21,08,12,15.30
2016,06,21,08,13,15.30
2016,06,21,08,14,15.30
2016,06,21,08,15,15.30
2016,06,21,08,16,15.30
2016,06,21,08,17,15.30
2016,06,21,08,18,15.40
2016,06,21,08,19,15.40
2016,06,21,08,20,15.40
2016,06,21,08,21,15.40
2016,06,21,08,22,15.40
2016,06,21,08,23,15.40
2016,06,21,08,24,15.40
2016,06,21,08,25,15.40
2016,06,21,08,26,15.50
2016,06,21,08,27,15.50
2016,06,21,08,28,15.50
2016,06,21,08,29,15.60
2016,06,21,08,30,15.60
2016,06,21,08,31,15.70
2016,06,21,08,32,15.70
2016,06,21,08,33,15.70
2016,06,21,08,34,15.70
2016,06,21,08,35,15.70
2016,06,21,08,36,15.70
2016,06,21,08,37,15.70
2016,06,21,08,38,15.70
2016,06,21,08,39,15.80
2016,06,21,08,40,15.80
2016,06,21,08,41,15.80
2016,06,21,08,42,15.80
2016,06,21,08,43,15.90
2016,06,21,08,44,15.90
2016,06,21,08,45,16.00
2016,06,21,08,46,16.00
2016,06,21,08,47,16.10
2016,06,21,08,48,16.20
2016,06,21,08,49,16.20
2016,06,21,08,50,16.20
2016,06,21,08,51,16.20
2016,06,21,08,52,16.30
2016,06,21,08,53,16.30
2016,06,21,08,54,16.30
2016,06,21,08,55,16.30
2016,06,21,08,56,16.20
2016,06,21,08,57,16.20
2016,06,21,08,58,16.10
2016,06,21,08,59,16.10
2016,06,21,09,00,16.10
2016,06,21,09,01,16.10
2016,06,21,09,02,16.20
2016,06,21,09,03,16.20
2016,06,21,09,04,16.10
2016,06,21,09,05,16.10
2016,06,21,09,06,16.10
2016,06,21,09,07,16.10
2016,06,21,09,08,16.10
2016,06,21,09,09,16.10
2016,06,21,09,10,16.20
2016,06,21,09,11,16.20
2016,06,21,09,12,16.20
2016,06,21,09,13,16.30
2016,06,21,09,14,16.30
2016,06,21,09,15,16.40
2016,06,21,09,16,16.40
2016,06,21,09,17,16.40
2016,06,21,09,18,16.50
2016,06,21,09,19,16.50
2016,06,21,09,20,16.50
2016,06,21,09,21,16.50
2016,06,21,09,22,16.40
2016,06,21,09,23,16.40
2016,06,21,09,24,16.40
2016,06,21,09,25,16.40
2016,06,21,09,26,16.30
2016,06,21,09,27,16.30
2016,06,21,09,28,16.20
2016,06,21,09,29,16.20
2016,06,21,09,30,16.20
2016,06,21,09,31,16.20
2016,06,21,09,32,16.20
2016,06,21,09,33,16.30
2016,06,21,09,34,16.30
2016,06,21,09,35,16.40
2016,06,21,09,36,16.40
2016,06,21,09,37,16.50
2016,06,21,09,38,16.60
2016,06,21,09,39,16.70
2016,06,21,09,40,16.80
2016,06,21,09,41,16.80
2016,06,21,09,42,16.70
2016,06,21,09,43,16.70
2016,06,21,09,44,16.70
2016,06,21,09,45,16.70
2016,06,21,09,46,16.70
2016,06,21,09,47,16.60
2016,06,21,09,48,16.60
2016,06,21,09,49,16.50
2016,06,21,09,50,16.60
2016,06,21,09,51,16.60
2016,06,21,09,52,16.80
2016,06,21,09,53,16.90
2016,06,21,09,54,16.90
2016,06,21,09,55,16.90
2016,06,21,09,56,16.90
2016,06,21,09,57,16.90
2016,06,21,09,58,16.90
2016,06,21,09,59,16.90
2016,06,21,10,00,16.90
2016,06,21,10,01,16.90
2016,06,21,10,02,16.90
2016,06,21,10,03,16.80
2016,06,21,10,04,16.80
2016,06,21,10,05,16.80
2016,06,21,10,06,16.70
2016,06,21,10,07,16.70
2016,06,21,10,08,16.60
2016,06,21,10,09,16.60
2016,06,21,10,10,16.50
2016,06,21,10,11,16.50
2016,06,21,10,12,16.40
2016,06,21,10,13,16.40
2016,06,21,10,14,16.30
2016,06,21,10,15,16.30
2016,06,21,10,16,16.30
2016,06,21,10,17,16.20
2016,06,21,10,18,16.10
2016,06,21,10,19,16.00
2016,06,21,10,20,16.00
2016,06,21,10,21,16.00
2016,06,21,10,22,15.90
2016,06,21,10,23,15.90
2016,06,21,10,24,15.90
2016,06,21,10,25,15.80
2016,06,21,10,26,15.80
2016,06,21,10,27,15.80
2016,06,21,10,28,15.80
2016,06,21,10,29,15.80
2016,06,21,10,30,15.80
2016,06,21,10,31,15.80
2016,06,21,10,32,15.90
2016,06,21,10,33,16.00
2016,06,21,10,34,16.00
2016,06,21,10,35,16.10
2016,06,21,10,36,16.10
2016,06,21,10,37,16.10
2016,06,21,10,38,16.20
2016,06,21,10,39,16.20
2016,06,21,10,40,16.30
2016,06,21,10,41,16.40
2016,06,21,10,42,16.40
2016,06,21,10,43,16.40
2016,06,21,10,44,16.40
2016,06,21,10,45,16.50
2016,06,21,10,46,16.50
2016,06,21,10,47,16.60
2016,06,21,10,48,16.60
2016,06,21,10,49,16.50
2016,06,21,10,50,16.50
2016,06,21,10,51,16.50
2016,06,21,10,52,16.60
2016,06,21,10,53,16.60
2016,06,21,10,54,16.70
2016,06,21,10,55,16.70
2016,06,21,10,56,16.70
2016,06,21,10,57,16.70
2016,06,21,10,58,16.70
2016,06,21,10,59,16.60
2016,06,21,11,00,16.60
2016,06,21,11,01,16.60
2016,06,21,11,02,16.60
2016,06,21,11,03,16.60
2016,06,21,11,04,16.60
2016,06,21,11,05,16.70
2016,06,21,11,06,16.70
2016,06,21,11,07,16.70
2016,06,21,11,08,16.70
2016,06,21,11,09,16.70
2016,06,21,11,10,16.70
2016,06,21,11,11,16.80
2016,06,21,11,12,16.80
2016,06,21,11,13,16.80
2016,06,21,11,14,16.90
2016,06,21,11,15,16.90
2016,06,21,11,16,16.90
2016,06,21,11,17,17.00
2016,06,21,11,18,17.00
2016,06,21,11,19,17.10
2016,06,21,11,20,17.10
2016,06,21,11,21,17.20
2016,06,21,11,22,17.20
2016,06,21,11,23,17.30
2016,06,21,11,24,17.40
2016,06,21,11,25,17.40
2016,06,21,11,26,17.50
2016,06,21,11,27,17.50
2016,06,21,11,28,17.50
2016,06,21,11,29,17.60
2016,06,21,11,30,17.50
2016,06,21,11,31,17.40
2016,06,21,11,32,17.30
2016,06,21,11,33,17.30
2016,06,21,11,34,17.20
2016,06,21,11,35,17.20
2016,06,21,11,36,17.20
2016,06,21,11,37,17.30
2016,06,21,11,38,17.30
2016,06,21,11,39,17.40
2016,06,21,11,40,17.50
2016,06,21,11,41,17.50
2016,06,21,11,42,17.50
2016,06,21,11,43,17.50
2016,06,21,11,44,17.50
2016,06,21,11,45,17.50
2016,06,21,11,46,17.50
2016,06,21,11,47,17.50
2016,06,21,11,48,17.60
2016,06,21,11,49,17.70
2016,06,21,11,50,17.70
2016,06,21,11,51,17.60
2016,06,21,11,52,17.60
2016,06,21,11,53,17.60
2016,06,21,11,54,17.60
2016,06,21,11,55,17.70
2016,06,21,11,56,17.80
2016,06,21,11,57,17.70
2016,06,21,11,58,17.70
2016,06,21,11,59,17.70
2016,06,21,12,00,17.70
2016,06,21,12,01,17.70
2016,06,21,12,02,17.70
2016,06,21,12,03,17.80
2016,06,21,12,04,17.80
2016,06,21,12,05,17.80
2016,06,21,12,06,17.80
2016,06,21,12,07,17.90
2016,06,21,12,08,18.00
2016,06,21,12,09,18.00
2016,06,21,12,10,18.10
2016,06,21,12,11,18.20
2016,06,21,12,12,18.30
2016,06,21,12,13,18.30
2016,06,21,12,14,18.30
2016,06,21,12,15,18.30
2016,06,21,12,16,18.40
2016,06,21,12,17,18.40
2016,06,21,12,18,18.40
2016,06,21,12,19,18.40
2016,06,21,12,20,18.40
2016,06,21,12,21,18.40
2016,06,21,12,22,18.30
2016,06,21,12,23,18.30
2016,06,21,12,24,18.30
2016,06,21,12,25,18.30
2016,06,21,12,26,18.40
2016,06,21,12,27,18.50
2016,06,21,12,28,18.60
2016,06,21,12,29,18.70
2016,06,21,12,30,18.70
2016,06,21,12,31,18.70
2016,06,21,12,32,18.60
2016,06,21,12,33,18.70
2016,06,21,12,34,18.70
2016,06,21,12,35,18.70
2016,06,21,12,36,18.80
2016,06,21,12,37,18.80
2016,06,21,12,38,18.80
2016,06,21,12,39,18.80
2016,06,21,12,40,18.70
2016,06,21,12,41,18.70
2016,06,21,12,42,18.70
2016,06,21,12,43,18.70
2016,06,21,12,44,18.70
2016,06,21,12,45,18.70
2016,06,21,12,46,18.70
2016,06,21,12,47,18.70
2016,06,21,12,48,18.70
2016,06,21,12,49,18.70
2016,06,21,12,50,18.70
2016,06,21,12,51,18.70
2016,06,21,12,52,18.60
2016,06,21,12,53,18.60
2016,06,21,12,54,18.60
2016,06,21,12,55,18.60
2016,06,21,12,56,18.50
2016,06,21,12,57,18.50
2016,06,21,12,58,18.40
2016,06,21,12,59,18.40
2016,06,21,13,00,18.40
2016,06,21,13,01,18.30
2016,06,21,13,02,18.30
2016,06,21,13,03,18.30
2016,06,21,13,04,18.30
2016,06,21,13,05,18.20
2016,06,21,13,06,18.30
2016,06,21,13,07,18.30
2016,06,21,13,08,18.30
2016,06,21,13,09,18.40
2016,06,21,13,10,18.40
2016,06,21,13,11,18.50
2016,06,21,13,12,18.50
2016,06,21,13,13,18.50
2016,06,21,13,14,18.50
2016,06,21,13,15,18.50
2016,06,21,13,16,18.40
2016,06,21,13,17,18.40
2016,06,21,13,18,18.40
2016,06,21,13,19,18.30
2016,06,21,13,20,18.30
2016,06,21,13,21,18.30
2016,06,21,13,22,18.30
2016,06,21,13,23,18.20
2016,06,21,13,24,18.20
2016,06,21,13,25,18.20
2016,06,21,13,26,18.20
2016,06,21,13,27,18.30
2016,06,21,13,28,18.20
2016,06,21,13,29,18.20
2016,06,21,13,30,18.20
2016,06,21,13,31,18.20
2016,06,21,13,32,18.20
2016,06,21,13,33,18.20
2016,06,21,13,34,18.30
2016,06,21,13,35,18.30
2016,06,21,13,36,18.30
2016,06,21,13,37,18.30
2016,06,21,13,38,18.30
2016,06,21,13,39,18.30
2016,06,21,13,40,18.40
2016,06,21,13,41,18.40
2016,06,21,13,42,18.30
2016,06,21,13,43,18.30
2016,06,21,13,44,18.20
2016,06,21,13,45,18.10
2016,06,21,13,46,18.10
2016,06,21,13,47,18.00
2016,06,21,13,48,17.90
2016,06,21,13,49,17.90
2016,06,21,13,50,17.90
2016,06,21,13,51,17.90
2016,06,21,13,52,17.90
2016,06,21,13,53,17.90
2016,06,21,13,54,17.80
2016,06,21,13,55,17.80
2016,06,21,13,56,17.80
2016,06,21,13,57,17.70
2016,06,21,13,58,17.70
2016,06,21,13,59,17.70
2016,06,21,14,00,17.70
2016,06,21,14,01,17.80
2016,06,21,14,02,17.80
2016,06,21,14,03,17.80
2016,06,21,14,04,17.80
2016,06,21,14,05,17.90
2016,06,21,14,06,17.90
2016,06,21,14,07,17.90
2016,06,21,14,08,17.90
2016,06,21,14,09,17.90
2016,06,21,14,10,18.00
2016,06,21,14,11,18.00
2016,06,21,14,12,18.00
2016,06,21,14,13,18.10
2016,06,21,14,14,18.20
2016,06,21,14,15,18.20
2016,06,21,14,16,18.20
2016,06,21,14,17,18.30
2016,06,21,14,18,18.30
2016,06,21,14,19,18.30
2016,06,21,14,20,18.30
2016,06,21,14,21,18.30
2016,06,21,14,22,18.30
2016,06,21,14,23,18.30
2016,06,21,14,24,18.20
2016,06,21,14,25,18.20
2016,06,21,14,26,18.10
2016,06,21,14,27,18.00
2016,06,21,14,28,18.00
2016,06,21,14,29,17.90
2016,06,21,14,30,17.90
2016,06,21,14,31,17.90
2016,06,21,14,32,18.00
2016,06,21,14,33,18.00
2016,06,21,14,34,18.10
2016,06,21,14,35,18.10
2016,06,21,14,36,18.20
2016,06,21,14,37,18.20
2016,06,21,14,38,18.20
2016,06,21,14,39,18.20
2016,06,21,14,40,18.20
2016,06,21,14,41,18.10
2016,06,21,14,42,18.10
2016,06,21,14,43,18.00
2016,06,21,14,44,17.90
2016,06,21,14,45,17.90
2016,06,21,14,46,17.90
2016,06,21,14,47,17.90
2016,06,21,14,48,17.90
2016,06,21,14,49,17.90
2016,06,21,14,50,17.90
2016,06,21,14,51,18.00
2016,06,21,14,52,18.00
2016,06,21,14,53,18.00
2016,06,21,14,54,17.90
2016,06,21,14,55,17.90
2016,06,21,14,56,17.90
2016,06,21,14,57,17.90
2016,06,21,14,58,17.90
2016,06,21,14,59,17.90
2016,06,21,15,00,17.90
2016,06,21,15,01,17.90
2016,06,21,15,02,17.80
2016,06,21,15,03,17.80
2016,06,21,15,04,17.80
2016,06,21,15,05,17.70
2016,06,21,15,06,17.70
2016,06,21,15,07,17.70
2016,06,21,15,08,17.70
2016,06,21,15,09,17.70
2016,06,21,15,10,17.70
2016,06,21,15,11,17.80
2016,06,21,15,12,17.80
2016,06,21,15,13,17.90
2016,06,21,15,14,17.90
2016,06,21,15,15,17.90
2016,06,21,15,16,17.90
2016,06,21,15,17,17.90
2016,06,21,15,18,17.90
2016,06,21,15,19,18.00
2016,06,21,15,20,18.00
2016,06,21,15,21,18.00
2016,06,21,15,22,18.10
2016,06,21,15,23,18.10
2016,06,21,15,24,18.10
2016,06,21,15,25,18.10
2016,06,21,15,26,18.10
2016,06,21,15,27,18.00
2016,06,21,15,28,18.00
2016,06,21,15,29,18.00
2016,06,21,15,30,18.00
2016,06,21,15,31,17.90
2016,06,21,15,32,17.90
2016,06,21,15,33,17.90
2016,06,21,15,34,17.80
2016,06,21,15,35,17.80
2016,06,21,15,36,17.70
2016,06,21,15,37,17.70
2016,06,21,15,38,17.60
2016,06,21,15,39,17.60
2016,06,21,15,40,17.60
2016,06,21,15,41,17.60
2016,06,21,15,42,17.60
2016,06,21,15,43,17.60
2016,06,21,15,44,17.60
2016,06,21,15,45,17.60
2016,06,21,15,46,17.60
2016,06,21,15,47,17.60
2016,06,21,15,48,17.60
2016,06,21,15,49,17.70
2016,06,21,15,50,17.70
2016,06,21,15,51,17.80
2016,06,21,15,52,17.80
2016,06,21,15,53,17.80
2016,06,21,15,54,17.80
2016,06,21,15,55,17.80
2016,06,21,15,56,17.80
2016,06,21,15,57,17.80
2016,06,21,15,58,17.80
2016,06,21,15,59,17.80
2016,06,21,16,00,17.80
2016,06,21,16,01,17.80
2016,06,21,16,02,17.80
2016,06,21,16,03,17.80
2016,06,21,16,04,17.80
2016,06,21,16,05,17.80
2016,06,21,16,06,17.80
2016,06,21,16,07,17.80
2016,06,21,16,08,17.70
2016,06,21,16,09,17.80
2016,06,21,16,10,17.80
2016,06,21,16,11,17.80
2016,06,21,16,12,17.70
2016,06,21,16,13,17.80
2016,06,21,16,14,17.80
2016,06,21,16,15,17.80
2016,06,21,16,16,17.80
2016,06,21,16,17,17.90
2016,06,21,16,18,17.90
2016,06,21,16,19,17.90
2016,06,21,16,20,17.90
2016,06,21,16,21,18.00
2016,06,21,16,22,18.00
2016,06,21,16,23,18.10
2016,06,21,16,24,18.10
2016,06,21,16,25,18.10
2016,06,21,16,26,18.20
2016,06,21,16,27,18.20
2016,06,21,16,28,18.10
2016,06,21,16,29,18.10
2016,06,21,16,30,18.10
2016,06,21,16,31,18.10
2016,06,21,16,32,18.10
2016,06,21,16,33,18.10
2016,06,21,16,34,18.10
2016,06,21,16,35,18.10
2016,06,21,16,36,18.10
2016,06,21,16,37,18.10
2016,06,21,16,38,18.00
2016,06,21,16,39,18.00
2016,06,21,16,40,18.00
2016,06,21,16,41,18.00
2016,06,21,16,42,18.00
2016,06,21,16,43,18.00
2016,06,21,16,44,18.00
2016,06,21,16,45,18.00
2016,06,21,16,46,18.10
2016,06,21,16,47,18.00
2016,06,21,16,48,18.00
2016,06,21,16,49,18.00
2016,06,21,16,50,17.90
2016,06,21,16,51,17.90
2016,06,21,16,52,17.90
2016,06,21,16,53,17.90
2016,06,21,16,54,17.90
2016,06,21,16,55,17.90
2016,06,21,16,56,17.90
2016,06,21,16,57,17.90
2016,06,21,16,58,17.90
2016,06,21,16,59,17.90
2016,06,21,17,00,17.90
2016,06,21,17,01,17.90
2016,06,21,17,02,17.90
2016,06,21,17,03,17.90
2016,06,21,17,04,17.90
2016,06,21,17,05,17.80
2016,06,21,17,06,17.80
2016,06,21,17,07,17.80
2016,06,21,17,08,17.70
2016,06,21,17,09,17.70
2016,06,21,17,10,17.70
2016,06,21,17,11,17.70
2016,06,21,17,12,17.70
2016,06,21,17,13,17.80
2016,06,21,17,14,17.80
2016,06,21,17,15,17.80
2016,06,21,17,16,17.80
2016,06,21,17,17,17.80
2016,06,21,17,18,17.80
2016,06,21,17,19,17.80